User: anonymous   Login
Location: Unspecified
(0.0000°N, 0.0000°E)
Time: 01:26:25
(UTC+00:00)
Language:

Explorer 7 - Orbit

View from above orbital plane
View from above orbital plane
View from above satellite
View from above satellite

Ground track
Ground track

The orbit data is extracted from the following two-line orbital elements,

1 00022U 59009A   15208.53680154  .00000941  00000-0  97484-4 0  9995
2 00022 050.2847 194.3134 0147025 281.5252 076.9218 14.92361091958125
Epoch (UTC): 27 July 2015 12:52:59
Eccentricity: 0.0147025
inclination: 50.2847°
perigee height: 488 km
apogee height: 693 km
right ascension of ascending node: 194.3134°
argument of perigee: 281.5252°
revolutions per day: 14.92361091
mean anomaly at epoch: 76.9218°
orbit number at epoch: 95812

The dashed part of the orbit path shows where the satellite is in the earth's shadow,  

DLR